Other Surface Observations
Issued by NWS Charleston, SC

Home | Current Version | Previous Version | Text Only | Print | Product List | Glossary On
Versions: 1 2 3 4 5 6 7 8 9 10 11 12 13 14 15 16 17 18 19 20 21 22 23 24 25 26 27 28 29 30 31 32 33 34 35 36 37 38 39 40 41 42 43 44 45 46 47 48 49 50
000
SXUS52 KCHS 162127
OSOCHS

Marine Observations
National Weather Service Charleston SC
400 PM EST TUE JAN 16 2018

...Downtown Charleston and Harbor...

CITY           SKY/WX    TMP DP  RH WIND       PRES   REMARKS
Waterfront Prk NOT AVBL

...Lake Moultrie...

CITY           SKY/WX    TMP DP  RH WIND       PRES   REMARKS
Pinopolis        N/A     46  37  71 VRB3      30.28F

...Lake and Supplemental Coastal Observations...

STATION/POSITION TIME  TEMP    WIND        PRES    WAVE   SWELL
                       AIR SEA DIR/SP/G            HT/PER HT/PER/DIR
                 (UTC) (F)     (DEG/KT/KT) (MB)    (FT/S) (FT/S/D)
Fort Pulaski     2100   46 47   90/  7/  8 1028.4
Sapelo Island    2100   54      80/  5     1028.0
Winyah Bay       2030   45     120/  4     1028.0S
Lake Murray      2120   51      CALM  /  1 1026.8
ACE Basin NERRS  2045   50        CALM     1028.0S


...C-MAN and Buoy Observations...

STATION/POSITION TIME  TEMP    WIND        PRES    WAVE   SWELL
                       AIR SEA DIR/SP/G            HT/PER HT/PER/DIR
                 (UTC) (F)     (DEG/KT/KT) (MB)    (FT/S) (FT/S/D)
Buoy 41004       2110   53 69   50/  4/  8 1028.2
Buoy 41008       2050   51 52   30/  8/ 10 1027.8F   4/10   3/110/10
Folly Beach CMAN 2100   48     120/  4/  5 1029.0F
Capers NS Buoy   2108   47 48  110/  2/  4 1028.3R
Fripp NS Buoy    2108   49 46   40/  4/  6 1027.5F
5E St. Marys GA  2100      51                N/A     4/10   2/ 90/11


STATION/POSITION TIME  TEMP    WIND        PRES    WAVE   SWELL
                       AIR SEA DIR/SP/G            HT/PER HT/PER/DIR
                 (UTC) (F)     (DEG/KT/KT) (MB)    (FT/S) (FT/S/D)
Frying Pan Buoy  2110   48 60  340/  6/  8 1028.1
Buoy 41025       2110   49 66   10/ 10/ 14 1027.2
Cape Lookout NC  2100           20/  5/  7 1027.9R
Buoy 41002       2050   67 71  110/ 12/ 14 1024.7F   9/ 9   8/ 60/ 9
Buoy 41010       NOT AVBL
St Augustine FL  2100   49 52  350/ 13/ 14 1027.4F

$$




USA.gov is the U.S. government's official web portal to all federal, state and local government web resources and services.